When you browse on this site, cookies collect data to enhance your experience and personalize the content and advertising you see.
Visit our Privacy Policy to learn more. By continuing to use the site, you agree to this use of cookies and data.

Meteo pe oră la Catanzaro

Astăzi, 7 Iulie, Marţi

Timp Temperatura Precipitaţii Vânt Presiune Umiditate
00:00 +21°C° 0 mm 4 m/s 737 mmHg 88%
01:00 +21°C° 0 mm 4 m/s 737 mmHg 88%
02:00 +21°C° 0 mm 4 m/s 737 mmHg 88%
03:00 +21°C° 0 mm 4 m/s 737 mmHg 87%
04:00 +21°C° 0 mm 4 m/s 737 mmHg 87%
05:00 +22°C° 0 mm 4 m/s 737 mmHg 83%
06:00 +24°C° 0 mm 3 m/s 737 mmHg 78%
07:00 +26°C° 0 mm 3 m/s 738 mmHg 74%
08:00 +27°C° 0 mm 3 m/s 738 mmHg 67%
09:00 +29°C° 0 mm 3 m/s 738 mmHg 60%
10:00 +30°C° 0 mm 3 m/s 739 mmHg 53%
11:00 +31°C° 0 mm 3 m/s 739 mmHg 52%
12:00 +31°C° 0 mm 3 m/s 739 mmHg 52%
13:00 +33°C° 0 mm 3 m/s 739 mmHg 51%
14:00 +31°C° 0.1 mm 3 m/s 739 mmHg 54%
15:00 +31°C° 0.1 mm 3 m/s 739 mmHg 57%
16:00 +30°C° 0.1 mm 2 m/s 739 mmHg 60%
17:00 +29°C° 0.1 mm 2 m/s 740 mmHg 66%
18:00 +27°C° 0.1 mm 2 m/s 740 mmHg 73%
19:00 +26°C° 0.1 mm 2 m/s 740 mmHg 79%
20:00 +25°C° 0 mm 2 m/s 741 mmHg 81%
21:00 +24°C° 0 mm 2 m/s 741 mmHg 83%
22:00 +23°C° 0 mm 2 m/s 741 mmHg 84%
23:00 +23°C° 0 mm 2 m/s 741 mmHg 84%

Mâine, 8 Iulie, Miercuri

Timp Temperatura Precipitaţii Vânt Presiune Umiditate
00:00 +23°C° 0 mm 2 m/s 741 mmHg 84%
01:00 +23°C° 0 mm 2 m/s 741 mmHg 83%
02:00 +21°C° 0 mm 2 m/s 741 mmHg 83%
03:00 +21°C° 0 mm 2 m/s 741 mmHg 82%
04:00 +21°C° 0 mm 2 m/s 741 mmHg 81%
05:00 +24°C° 0 mm 2 m/s 742 mmHg 75%
06:00 +25°C° 0 mm 2 m/s 742 mmHg 69%
07:00 +27°C° 0 mm 2 m/s 742 mmHg 62%
08:00 +28°C° 0 mm 2 m/s 743 mmHg 58%
09:00 +29°C° 0 mm 2 m/s 743 mmHg 54%
10:00 +31°C° 0 mm 3 m/s 744 mmHg 50%
11:00 +31°C° 0 mm 3 m/s 743 mmHg 49%
12:00 +31°C° 0 mm 3 m/s 743 mmHg 48%
13:00 +33°C° 0 mm 4 m/s 743 mmHg 47%
14:00 +31°C° 0 mm 3 m/s 743 mmHg 48%
15:00 +30°C° 0 mm 3 m/s 743 mmHg 49%
16:00 +30°C° 0 mm 3 m/s 743 mmHg 50%
17:00 +28°C° 0 mm 2 m/s 743 mmHg 57%
18:00 +26°C° 0 mm 2 m/s 743 mmHg 64%
19:00 +24°C° 0 mm 1 m/s 743 mmHg 72%
20:00 +24°C° 0 mm 1 m/s 743 mmHg 72%
21:00 +23°C° 0 mm 1 m/s 743 mmHg 73%
22:00 +22°C° 0 mm 1 m/s 744 mmHg 74%
23:00 +23°C° 0 mm 1 m/s 744 mmHg 73%

Poimâine, 9 Iulie, Joi

Timp Temperatura Precipitaţii Vânt Presiune Umiditate
00:00 +23°C° 0 mm 1 m/s 744 mmHg 71%
01:00 +23°C° 0 mm 1 m/s 744 mmHg 70%
02:00 +23°C° 0 mm 1 m/s 744 mmHg 69%
03:00 +22°C° 0 mm 1 m/s 744 mmHg 69%
04:00 +22°C° 0 mm 1 m/s 744 mmHg 68%
05:00 +24°C° 0 mm 1 m/s 744 mmHg 63%
06:00 +26°C° 0 mm 1 m/s 744 mmHg 59%
07:00 +27°C° 0 mm 1 m/s 744 mmHg 55%
08:00 +28°C° 0 mm 1 m/s 744 mmHg 51%
09:00 +30°C° 0 mm 2 m/s 745 mmHg 48%
10:00 +31°C° 0 mm 2 m/s 745 mmHg 45%
11:00 +31°C° 0 mm 2 m/s 745 mmHg 45%
12:00 +32°C° 0 mm 2 m/s 744 mmHg 45%
13:00 +32°C° 0 mm 2 m/s 744 mmHg 44%
14:00 +31°C° 0 mm 2 m/s 744 mmHg 46%
15:00 +31°C° 0 mm 2 m/s 744 mmHg 48%
16:00 +30°C° 0 mm 2 m/s 744 mmHg 50%
17:00 +29°C° 0 mm 2 m/s 744 mmHg 58%
18:00 +27°C° 0 mm 1 m/s 744 mmHg 65%
19:00 +25°C° 0 mm 1 m/s 743 mmHg 73%
20:00 +25°C° 0 mm 1 m/s 744 mmHg 71%
21:00 +24°C° 0 mm 1 m/s 744 mmHg 69%
22:00 +24°C° 0 mm 1 m/s 744 mmHg 67%
23:00 +24°C° 0 mm 1 m/s 744 mmHg 64%

10 Iulie, Vineri

Timp Temperatura Precipitaţii Vânt Presiune Umiditate
00:00 +24°C° 0 mm 1 m/s 743 mmHg 61%
01:00 +24°C° 0 mm 1 m/s 743 mmHg 58%
02:00 +23°C° 0 mm 1 m/s 743 mmHg 59%
03:00 +23°C° 0 mm 1 m/s 743 mmHg 59%
04:00 +23°C° 0 mm 1 m/s 743 mmHg 60%
05:00 +25°C° 0 mm 1 m/s 743 mmHg 56%
06:00 +26°C° 0 mm 1 m/s 743 mmHg 53%
07:00 +28°C° 0 mm 1 m/s 743 mmHg 49%
08:00 +29°C° 0 mm 1 m/s 743 mmHg 46%
09:00 +30°C° 0 mm 2 m/s 743 mmHg 42%
10:00 +32°C° 0 mm 2 m/s 743 mmHg 39%
11:00 +32°C° 0 mm 2 m/s 743 mmHg 40%
12:00 +32°C° 0 mm 2 m/s 743 mmHg 40%
13:00 +32°C° 0 mm 2 m/s 743 mmHg 41%
14:00 +32°C° 0 mm 2 m/s 743 mmHg 42%
15:00 +32°C° 0 mm 2 m/s 743 mmHg 44%
16:00 +32°C° 0 mm 2 m/s 742 mmHg 45%
17:00 +30°C° 0 mm 2 m/s 742 mmHg 54%
18:00 +28°C° 0 mm 2 m/s 742 mmHg 62%
19:00 +26°C° 0 mm 1 m/s 742 mmHg 71%
20:00 +25°C° 0 mm 2 m/s 742 mmHg 71%
21:00 +25°C° 0 mm 2 m/s 743 mmHg 71%
22:00 +24°C° 0 mm 2 m/s 743 mmHg 72%
23:00 +24°C° 0 mm 2 m/s 743 mmHg 71%

11 Iulie, Sâmbătă

Timp Temperatura Precipitaţii Vânt Presiune Umiditate
00:00 +24°C° 0 mm 2 m/s 742 mmHg 71%
01:00 +24°C° 0 mm 3 m/s 742 mmHg 71%
02:00 +24°C° 0 mm 3 m/s 742 mmHg 72%
03:00 +24°C° 0 mm 2 m/s 742 mmHg 72%
04:00 +23°C° 0 mm 2 m/s 742 mmHg 73%
05:00 +25°C° 0 mm 2 m/s 742 mmHg 69%
06:00 +26°C° 0 mm 2 m/s 742 mmHg 64%
07:00 +28°C° 0 mm 2 m/s 742 mmHg 60%
08:00 +29°C° 0 mm 2 m/s 743 mmHg 56%
09:00 +31°C° 0 mm 2 m/s 743 mmHg 52%
10:00 +32°C° 0 mm 2 m/s 743 mmHg 48%
11:00 +33°C° 0 mm 3 m/s 743 mmHg 48%
12:00 +33°C° 0 mm 3 m/s 743 mmHg 48%
13:00 +33°C° 0 mm 3 m/s 743 mmHg 48%
14:00 +33°C° 0 mm 3 m/s 743 mmHg 48%
15:00 +33°C° 0 mm 3 m/s 742 mmHg 47%
16:00 +33°C° 0 mm 3 m/s 742 mmHg 47%
17:00 +30°C° 0 mm 3 m/s 742 mmHg 54%
18:00 +28°C° 0 mm 3 m/s 742 mmHg 62%
19:00 +26°C° 0 mm 3 m/s 742 mmHg 69%
20:00 +26°C° 0 mm 3 m/s 742 mmHg 70%
21:00 +25°C° 0 mm 3 m/s 743 mmHg 70%
22:00 +24°C° 0 mm 3 m/s 743 mmHg 71%
23:00 +24°C° 0 mm 3 m/s 743 mmHg 69%

12 Iulie, Duminică

Timp Temperatura Precipitaţii Vânt Presiune Umiditate
00:00 +24°C° 0 mm 3 m/s 743 mmHg 67%
01:00 +24°C° 0 mm 3 m/s 742 mmHg 65%
02:00 +24°C° 0 mm 3 m/s 742 mmHg 66%
03:00 +24°C° 0 mm 3 m/s 742 mmHg 66%
04:00 +24°C° 0 mm 2 m/s 742 mmHg 67%
05:00 +25°C° 0 mm 2 m/s 743 mmHg 63%
06:00 +27°C° 0 mm 2 m/s 743 mmHg 60%
07:00 +28°C° 0 mm 2 m/s 744 mmHg 56%
08:00 +30°C° 0 mm 2 m/s 744 mmHg 51%
09:00 +32°C° 0 mm 2 m/s 744 mmHg 46%
10:00 +34°C° 0 mm 3 m/s 744 mmHg 41%
11:00 +35°C° 0 mm 3 m/s 744 mmHg 41%
12:00 +35°C° 0 mm 3 m/s 744 mmHg 41%
13:00 +35°C° 0 mm 3 m/s 744 mmHg 41%
14:00 +34°C° 0 mm 3 m/s 744 mmHg 43%
15:00 +34°C° 0 mm 3 m/s 744 mmHg 45%
16:00 +32°C° 0 mm 2 m/s 744 mmHg 47%
17:00 +31°C° 0 mm 2 m/s 744 mmHg 54%
18:00 +29°C° 0 mm 2 m/s 744 mmHg 62%
19:00 +27°C° 0 mm 1 m/s 744 mmHg 70%
20:00 +26°C° 0 mm 1 m/s 744 mmHg 71%
21:00 +26°C° 0 mm 1 m/s 744 mmHg 73%
22:00 +25°C° 0 mm 2 m/s 744 mmHg 74%
23:00 +25°C° 0 mm 2 m/s 744 mmHg 73%
Arată mai mult